Lapse_Rate
6.3 6.6 5.5 5.2 5.5 5.4 5.4 5.6 5.4 5.5 5.5 5.6 5.6 5.5 5.4 6.0 6.5 6.8 7.0 7.7 7.8 7.8 7.8 7.6 7.3 6.9 6.3 5.8 5.7 4.7 4.9 5.6 5.6 5.8 5.9 6.0 5.4 5.2 5.2 5.8 6.4 6.3 6.3 6.1
6.5 5.5 4.9 5.2 5.6 5.9 5.9 5.7 5.3 5.1 4.9 5.4 5.4 5.5 6.0 6.2 6.6 6.9 7.3 7.5 7.6 7.9 7.5 7.3 7.3 6.9 6.3 6.1 5.5 5.2 4.5 4.8 5.3 5.4 5.7 6.0 5.8 5.3 4.6 5.1 6.0 6.4 6.1 5.9
5.8 4.8 5.0 5.4 5.5 5.5 5.4 5.4 5.2 4.8 4.8 5.1 4.9 5.0 5.7 6.2 6.7 6.8 6.8 6.8 7.2 7.6 7.7 7.4 7.4 7.0 6.5 5.9 5.8 5.1 4.2 4.0 5.1 5.2 5.2 5.2 5.7 5.6 5.2 5.2 5.2 5.6 6.3 6.3
5.3 5.0 5.1 5.3 5.4 5.2 5.2 5.1 5.3 5.0 4.9 5.3 5.3 5.5 5.9 6.3 6.6 6.9 6.6 6.6 6.9 7.2 7.5 7.6 7.3 7.2 6.8 6.0 5.6 5.2 4.3 3.0 3.9 5.2 4.7 4.6 5.2 5.3 5.6 5.7 5.7 4.5 6.1 6.3
5.2 4.9 5.0 5.1 4.8 4.8 4.8 5.3 4.9 4.8 4.9 5.2 5.3 4.8 5.9 6.1 6.9 7.0 6.9 6.7 6.8 7.1 7.2 7.2 7.3 7.3 7.2 6.6 5.7 5.2 5.0 3.7 3.1 4.1 4.3 4.2 4.4 5.0 5.2 5.4 5.7 5.6 5.7 6.1
5.5 5.1 4.8 4.7 4.8 4.9 4.9 5.0 4.4 4.5 5.0 3.9 5.0 4.8 5.9 6.1 6.4 7.0 6.8 6.5 6.4 6.5 6.8 7.1 7.2 7.3 7.5 7.2 6.8 6.3 5.6 5.4 3.9 3.3 4.0 4.0 4.0 4.3 5.0 5.3 5.5 5.9 6.2 6.2
5.6 5.3 5.1 4.9 4.6 4.3 4.5 4.8 4.1 4.2 3.5 3.5 4.8 4.7 6.7 6.2 6.2 6.2 6.3 6.3 6.1 6.2 6.5 6.9 7.2 7.3 7.2 7.2 7.2 6.9 6.4 6.0 5.5 3.8 3.1 4.0 4.0 4.0 4.3 5.0 5.4 5.6 6.0 6.1
5.4 5.4 5.3 5.1 4.5 4.2 4.1 4.1 4.5 3.5 1.8 3.2 4.9 4.9 6.1 6.0 6.0 5.8 5.8 6.1 6.1 6.2 6.5 6.5 6.7 7.0 7.0 7.0 7.1 7.0 6.6 6.7 6.5 5.2 3.7 3.2 4.1 4.1 4.1 4.4 5.1 5.4 5.5 5.9
5.4 5.4 5.2 4.9 4.7 4.5 4.4 4.1 3.8 3.0 3.2 3.0 4.1 4.9 5.6 6.0 5.8 5.7 5.5 6.0 6.3 6.3 6.1 6.1 6.3 6.5 6.8 6.9 7.1 6.9 6.5 6.2 6.7 6.2 4.9 3.9 3.5 4.1 4.2 4.2 4.6 5.2 5.5 5.7
5.4 5.1 5.2 4.7 4.5 4.5 4.5 4.4 4.2 4.1 1.7 1.3 3.5 4.1 5.4 5.7 5.8 5.6 5.4 5.6 5.9 5.8 5.8 5.9 6.3 6.6 6.7 6.9 6.9 6.9 6.8 6.2 6.0 6.4 6.0 5.0 4.0 3.9 4.2 4.3 4.3 4.9 5.2 5.5
5.5 5.2 5.3 4.8 4.7 4.4 4.4 4.3 4.2 4.1 4.0 2.3 0.1 4.3 5.7 5.6 5.7 5.5 5.2 5.3 5.5 5.6 5.6 5.6 6.1 6.5 6.8 7.0 6.9 6.9 6.7 6.2 5.8 6.2 6.6 6.0 5.2 4.3 4.2 4.4 4.5 4.6 5.0 5.3
5.4 5.4 5.4 5.3 5.2 4.9 4.5 4.5 4.3 4.3 4.2 3.8 3.9 4.2 5.5 5.8 5.4 5.2 5.1 5.2 5.1 5.3 5.2 5.1 5.5 5.9 6.3 6.4 6.5 6.4 6.3 5.8 5.8 6.3 6.7 6.9 6.2 5.3 4.3 4.1 4.5 4.8 4.9 5.1
5.3 5.2 4.9 5.1 5.0 4.9 4.5 4.6 4.3 4.3 4.3 4.3 3.4 5.1 5.8 5.6 5.3 5.1 5.1 5.1 4.6 4.5 4.2 4.5 4.8 5.4 5.7 5.7 5.7 5.7 5.5 5.5 5.8 6.3 7.0 7.5 7.2 6.1 5.2 4.3 4.4 4.8 5.0 5.1
5.4 5.5 5.4 5.3 5.2 4.9 4.9 4.9 4.7 4.2 4.0 4.5 4.8 5.3 5.8 5.3 4.9 5.1 5.0 4.8 4.5 4.0 3.6 4.1 4.3 4.8 5.6 5.7 5.5 5.5 5.6 5.8 6.2 6.6 7.2 7.6 7.6 7.0 6.0 5.2 4.3 4.5 4.9 5.1
5.3 5.5 5.5 5.6 5.3 5.3 5.5 5.9 5.2 4.9 5.2 4.5 5.8 5.1 5.3 5.1 5.0 5.1 5.3 4.7 4.7 4.3 3.9 3.7 4.0 4.4 5.4 5.7 5.7 5.8 6.0 6.3 6.6 6.8 7.2 7.3 7.3 7.1 6.7 5.9 5.0 4.4 4.5 4.8
5.5 5.2 5.3 5.8 5.8 5.1 5.9 6.1 6.0 5.7 5.6 5.5 5.4 5.3 4.9 4.9 5.1 5.2 5.0 4.9 4.9 4.3 4.1 3.8 3.5 4.1 4.7 5.6 6.0 6.2 6.4 6.6 6.9 7.0 7.1 7.0 7.0 6.9 6.7 6.2 5.6 5.1 4.5 4.4
5.5 5.1 4.6 4.9 4.8 5.1 6.0 6.2 5.9 5.7 5.6 5.5 5.5 5.3 5.0 5.0 5.1 5.0 5.0 5.2 5.1 4.7 4.5 4.2 3.8 4.0 4.7 5.2 5.8 6.2 6.3 6.6 6.8 6.7 6.8 6.8 6.7 6.5 6.5 6.2 6.0 5.6 5.1 4.4
5.5 5.1 4.3 4.5 4.9 3.2 6.4 6.5 6.0 5.8 5.9 5.8 5.5 5.2 5.2 5.2 5.1 4.9 5.0 5.1 5.1 5.2 5.2 4.8 4.6 4.3 4.5 5.1 5.5 6.1 6.2 6.2 6.4 6.3 6.4 6.5 6.5 6.4 6.4 6.1 5.9 5.9 5.6 5.0
5.3 4.9 4.5 4.2 3.9 5.8 6.9 6.2 5.7 5.7 6.2 5.6 5.4 5.3 5.5 5.4 5.2 4.8 4.9 5.0 5.2 5.3 5.3 5.2 5.1 4.8 4.6 4.6 5.1 5.5 6.0 5.9 6.1 6.1 6.2 6.3 6.3 6.2 6.3 6.2 6.0 5.9 5.9 5.3
5.4 5.1 4.6 4.1 3.9 2.9 6.2 6.0 5.5 5.5 5.9 5.6 5.4 5.4 5.4 5.2 5.2 5.0 4.8 4.9 5.1 5.3 5.3 5.2 5.4 5.3 5.1 4.9 4.5 4.8 5.3 5.2 5.8 5.9 5.9 6.1 6.1 6.1 6.1 6.1 6.1 6.1 6.0 5.9
5.8 5.2 5.0 4.4 3.7 5.8 6.4 6.0 5.7 5.5 5.8 5.7 5.8 5.6 5.4 5.2 5.0 4.9 4.8 4.7 4.9 5.1 5.3 5.4 5.4 5.5 5.4 5.1 4.9 4.8 4.5 4.6 5.0 5.4 5.7 6.0 6.0 5.9 5.9 5.9 5.9 6.0 6.2 6.3
6.3 6.0 5.6 4.7 3.5 5.3 6.2 5.9 5.8 6.0 6.2 5.9 5.9 5.6 5.5 5.4 5.1 4.9 4.7 4.6 4.7 4.7 5.1 5.4 5.5 5.6 5.5 5.5 5.3 5.1 4.8 4.6 4.5 4.7 5.0 5.5 5.6 5.7 5.6 5.5 5.7 5.9 6.0 6.1
6.5 6.8 6.4 6.2 7.0 6.9 6.6 6.5 6.3 6.4 6.2 5.8 5.9 5.6 5.5 5.3 5.1 4.9 4.8 4.7 4.6 4.6 4.8 5.2 5.6 5.6 5.5 5.6 5.7 5.7 5.3 5.0 4.7 4.6 4.4 4.7 5.0 5.3 5.5 5.5 5.5 5.6 5.8 5.9
7.0 6.5 6.4 6.5 7.7 6.9 6.6 6.5 6.3 6.0 6.1 6.0 5.9 5.9 5.7 5.6 5.4 5.1 4.9 4.7 4.6 4.6 4.8 4.9 5.1 5.6 5.6 5.6 5.7 5.9 5.8 5.5 4.9 4.8 4.7 4.7 4.6 4.8 5.1 5.2 5.4 5.4 5.6 5.6
7.0 6.5 6.9 7.2 7.4 6.9 6.8 6.5 6.4 6.1 5.9 5.9 6.0 5.9 5.8 5.7 5.5 5.2 5.0 4.8 4.7 4.7 4.8 4.9 4.9 5.0 5.4 5.6 5.7 5.8 6.0 6.0 5.7 5.3 4.9 5.0 5.0 4.8 4.8 5.1 5.3 5.4 5.5 5.5
7.9 7.2 7.2 7.5 7.1 6.9 6.6 6.5 6.2 6.2 6.2 6.2 6.2 6.0 5.9 5.7 5.6 5.4 5.1 4.9 4.8 4.8 4.8 4.9 4.8 4.9 4.9 5.2 5.5 5.6 5.7 5.8 5.9 6.0 5.7 5.6 5.5 5.3 5.2 5.2 5.3 5.5 5.7 5.8
Wind_Speed
8 9 13 7 8 8 5 3 2 4 4 5 4 5 4 3 3 3 2 1 0 2 4 3 4 6 7 7 8 8 9 9 7 8 9 8 8 8 8 15 21 20 20 21
7 14 4 4 7 8 7 6 6 3 6 6 1 2 3 5 5 5 5 4 4 3 4 4 4 5 5 5 7 7 7 8 6 6 7 4 6 5 7 12 16 19 20 19
8 2 5 4 6 6 3 6 5 1 2 5 3 5 5 6 4 5 5 5 5 6 3 3 3 2 3 4 5 6 7 7 6 8 7 8 7 8 6 9 9 16 19 19
7 3 5 7 5 2 4 3 3 1 1 2 2 4 5 6 8 6 6 5 6 4 2 1 0 3 3 4 5 6 7 6 6 10 6 7 7 7 7 6 7 10 19 18
1 1 4 6 3 3 3 3 1 1 3 2 2 1 6 3 5 7 7 7 5 4 2 1 1 1 2 3 4 5 7 7 6 7 6 5 7 6 7 7 8 9 13 18
3 0 2 2 2 4 5 4 5 3 3 2 2 3 6 4 6 4 5 5 6 5 3 3 3 2 3 4 5 5 6 6 7 6 7 7 7 9 8 10 8 8 8 9
3 2 1 2 1 5 8 5 3 4 4 5 1 2 10 5 8 7 7 6 7 7 5 4 3 3 5 6 6 6 6 7 7 7 7 7 7 7 8 9 8 9 8 10
3 4 2 2 2 2 3 3 4 3 3 6 5 6 6 6 7 6 6 6 6 5 5 5 5 3 4 6 6 6 7 6 6 6 7 7 7 4 5 6 7 6 6 7
3 3 0 1 2 5 1 4 3 2 1 2 3 7 10 5 7 6 6 5 7 8 6 6 6 3 5 6 6 5 6 5 5 6 6 7 6 7 6 7 6 6 6 7
2 3 2 1 3 3 1 5 2 3 3 5 6 6 6 5 8 7 7 8 7 6 6 6 6 5 4 5 5 6 4 3 4 6 6 6 6 7 6 6 7 9 9 10
2 2 1 3 4 5 1 1 3 3 4 4 3 7 8 7 7 7 8 8 6 6 6 6 6 5 6 5 4 4 3 4 5 6 6 6 6 7 6 5 6 8 9 9
1 3 4 6 2 4 3 4 4 3 3 3 3 7 4 8 8 7 8 7 6 5 6 5 5 6 6 5 5 4 2 4 5 5 5 6 6 7 6 5 7 10 9 10
4 0 4 2 2 3 3 4 4 3 3 5 2 7 3 6 6 7 7 8 7 6 7 6 5 5 6 5 3 1 3 4 5 5 6 6 6 7 6 5 8 8 9 8
3 3 5 6 6 3 4 5 6 6 3 3 8 15 16 6 7 9 7 8 7 7 6 5 5 6 5 1 2 1 2 4 5 5 6 6 6 7 6 6 8 8 8 9
3 3 4 7 12 7 11 14 8 9 7 6 9 7 19 8 8 7 7 5 6 8 6 6 5 4 2 3 2 2 2 4 5 5 5 6 6 6 5 7 7 8 7 8
1 2 2 5 4 4 7 11 10 12 4 10 15 19 10 6 4 4 7 6 7 7 6 7 6 4 3 5 4 2 2 4 4 5 6 6 6 5 7 7 7 7 8 8
5 2 2 5 5 7 6 7 6 3 5 6 5 11 2 4 6 5 5 6 6 7 6 7 6 5 5 6 5 3 2 2 4 5 6 6 6 4 6 5 7 8 8 5
5 3 3 4 6 3 4 2 4 8 8 10 8 7 6 6 4 4 6 6 7 6 7 6 5 4 6 5 4 3 3 3 4 5 5 6 5 5 5 4 4 4 5 7
3 4 1 0 2 9 5 3 5 5 8 7 9 8 5 1 1 6 6 7 7 6 6 6 5 5 5 6 5 4 1 2 2 5 5 6 5 5 4 5 5 4 4 5
5 3 3 1 1 5 4 2 5 4 4 7 8 8 5 4 1 4 3 5 6 6 4 5 5 5 6 6 4 3 1 2 1 4 5 5 4 4 4 5 5 4 4 5
3 2 5 2 4 9 7 5 4 2 6 7 8 8 8 6 6 3 4 5 5 4 6 5 6 7 7 6 5 3 3 3 2 3 4 4 3 4 4 4 4 4 5 4
7 6 4 3 2 9 8 5 8 6 2 5 7 8 8 7 5 6 7 7 6 6 6 6 6 6 6 6 4 5 5 2 2 3 4 3 3 4 4 5 4 4 5 5
3 7 5 11 8 5 11 8 12 5 5 6 7 7 9 8 7 8 7 8 7 8 6 5 6 6 5 4 6 6 5 3 1 3 4 3 3 4 4 4 4 3 4 4
5 5 4 2 5 14 14 14 6 8 9 6 8 9 9 8 9 9 7 7 7 7 7 6 7 6 5 5 5 4 4 3 2 2 2 3 5 4 3 2 2 3 3 3
6 6 5 7 13 9 10 9 10 9 9 7 7 9 13 10 9 10 8 8 8 8 6 6 7 6 7 6 6 6 6 5 4 3 2 3 3 4 4 2 2 3 2 2
7 8 6 9 8 4 5 4 5 9 9 11 10 7 9 13 12 9 9 9 9 9 7 7 7 7 7 7 7 6 5 5 4 4 3 3 3 3 3 3 3 2 7 6
Wind_Direction
24 70 57 84 103 134 135 128 339 300 279 99 127 134 172 224 133 160 206 277 324 337 312 33 28 3 17 6 5 354 1 349 356 357 353 351 351 353 356 353 340 353 355 353
32 53 32 57 78 80 63 41 351 334 6 83 107 197 264 223 218 210 211 243 261 287 314 350 13 19 7 347 355 353 354 348 349 359 348 325 330 335 348 351 344 355 358 352
83 25 20 52 47 58 35 44 331 157 18 39 114 308 252 258 256 234 245 251 252 245 280 312 1 340 333 352 334 348 345 344 344 354 349 345 342 341 345 356 351 356 354 354
79 341 48 32 41 64 31 334 358 66 147 237 119 281 267 231 228 222 236 238 253 245 275 224 130 348 325 317 312 346 341 342 353 355 356 350 347 350 338 331 346 349 354 354
178 74 55 39 346 334 269 332 22 87 101 47 231 47 265 310 258 243 235 231 233 236 227 168 143 296 286 294 309 313 333 347 348 357 353 355 348 337 336 338 342 357 346 359
95 330 111 202 55 29 312 28 45 61 83 3 225 119 280 213 218 228 235 224 207 215 228 258 264 314 330 340 336 325 334 332 351 355 345 347 341 337 345 344 345 349 355 353
354 271 293 153 37 12 22 36 351 348 2 237 256 37 243 254 239 230 247 258 215 224 232 264 280 316 329 334 327 321 335 329 341 347 344 337 334 335 336 340 344 344 351 348
38 343 197 160 168 134 61 97 127 276 279 279 312 233 260 230 267 254 273 220 233 246 250 260 267 285 305 317 322 330 330 332 335 336 332 328 333 328 325 333 336 334 344 334
25 281 119 174 135 111 114 48 179 187 305 324 268 292 305 257 269 265 271 245 249 244 251 263 300 306 313 307 314 310 332 320 319 327 328 325 328 330 324 326 337 337 337 336
191 313 224 139 70 40 28 164 35 18 356 303 291 285 242 275 261 263 271 266 273 281 282 310 311 292 298 306 297 320 313 286 315 321 327 324 318 321 326 333 339 339 333 338
119 122 282 92 188 191 19 359 67 138 141 200 295 270 219 229 240 233 254 277 274 290 275 279 292 288 290 306 289 319 321 332 329 331 325 333 326 324 334 339 333 343 334 339
359 133 277 230 313 177 159 201 152 121 247 225 159 271 245 229 236 235 266 282 280 269 278 277 282 286 309 307 339 316 333 340 333 328 338 337 331 335 339 348 335 349 338 339
180 48 326 329 7 343 222 206 175 110 80 222 148 264 242 247 242 255 279 276 269 278 291 299 306 304 300 312 305 88 10 338 337 345 339 335 336 334 336 351 346 353 342 342
94 164 191 207 224 161 227 201 193 156 156 221 228 276 292 261 249 269 272 263 271 273 274 281 289 284 306 347 132 118 11 355 342 338 337 331 331 328 332 349 358 350 355 357
122 255 206 253 261 256 263 269 223 196 204 205 275 228 286 266 251 252 245 267 273 267 271 258 260 289 267 140 152 87 358 344 336 339 336 327 325 333 347 356 6 355 16 21
139 263 312 287 285 218 268 254 237 233 199 252 268 281 267 253 220 255 250 255 255 261 254 252 257 249 175 176 166 157 320 334 338 331 329 330 340 354 2 9 18 3 28 36
160 188 27 267 324 307 301 245 189 209 193 174 212 256 226 252 236 242 258 239 250 267 268 261 254 197 187 176 171 193 234 316 347 340 339 344 343 4 24 14 23 18 8 48
153 170 166 282 333 350 248 233 180 204 246 212 272 262 214 234 245 259 230 233 260 268 263 252 199 173 175 171 191 212 243 326 343 339 346 344 349 11 19 32 20 16 12 38
169 133 245 198 252 291 298 183 164 164 281 216 224 259 240 222 32 282 228 207 231 228 221 206 189 179 173 180 194 203 319 307 344 332 342 335 350 24 49 12 21 18 25 30
99 96 138 122 313 252 243 173 140 118 291 219 197 237 211 119 354 257 226 199 195 191 199 196 185 152 160 194 196 181 120 142 325 336 322 323 2 43 54 53 45 34 38 37
166 187 197 145 249 281 241 169 160 102 244 194 194 206 177 188 205 211 182 179 178 196 193 163 162 170 186 189 190 158 166 182 273 307 335 347 20 108 71 60 49 50 49 50
173 160 196 158 195 280 156 98 173 215 198 198 198 204 196 217 200 197 192 186 178 172 158 160 160 186 198 204 174 167 170 206 279 9 358 35 14 110 110 89 56 49 54 52
233 192 182 185 216 225 197 208 215 176 188 204 198 208 201 196 202 187 192 188 186 180 174 173 170 187 216 221 179 168 199 197 118 48 9 48 102 121 121 104 92 71 56 50
247 170 229 160 241 232 224 239 241 200 221 211 212 193 179 191 187 192 188 186 183 182 180 170 173 192 211 201 185 185 185 186 168 135 63 82 138 143 133 109 108 92 72 50
208 155 208 262 280 269 256 231 232 221 229 219 206 195 196 184 195 189 190 191 190 184 184 180 185 193 192 182 187 192 194 186 186 185 171 124 142 170 189 204 176 129 126 129
181 202 182 229 220 198 241 219 195 211 219 217 195 200 200 191 192 183 196 194 186 189 185 189 195 187 195 183 190 198 207 200 195 202 199 185 162 176 198 213 219 178 152 125